This is the latest recevied weather packets stored in our database for station/object OK2ZI. If no packets are shown the sender has not sent any weather packets the latest 10 day(s).
| Time | Temp. | Humidity | Pressure | Rain* | Wind** | Luminosity | Snow |
|---|---|---|---|---|---|---|---|
| 1777654926 | 17.78° C | 41% | 1022 hPa | 0 mm | - | - | - |
| 1777653610 | 18.33° C | 40% | 1022 hPa | 0 mm | - | - | - |
| 1777653366 | 18.33° C | 40% | 1022 hPa | 0 mm | - | - | - |
| 1777651811 | 18.89° C | 39% | 1022 hPa | 0 mm | - | - | - |
| 1777650126 | 18.33° C | 37% | 1022 hPa | 0 mm | - | - | - |
| 1777650012 | 18.33° C | 36% | 1022 hPa | 0 mm | - | - | - |
| 1777648087 | 18.33° C | 36% | 1022 hPa | 0 mm | - | - | - |
| 1777647846 | 18.33° C | 36% | 1022 hPa | 0 mm | - | - | - |
| 1777646767 | 18.89° C | 40% | 1022 hPa | 0 mm | - | - | - |
| 1777646647 | 18.89° C | 36% | 1022 hPa | 0 mm | - | - | - |
| 1777646287 | 18.33° C | 37% | 1023 hPa | 0 mm | - | - | - |
| 1777645926 | 18.33° C | 38% | 1023 hPa | 0 mm | - | - | - |
| 1777645327 | 18.33° C | 36% | 1023 hPa | 0 mm | - | - | - |
| 1777645087 | 18.33° C | 36% | 1023 hPa | 0 mm | - | - | - |
| 1777644727 | 17.78° C | 34% | 1023 hPa | 0 mm | - | - | - |
| 1777643166 | 18.89° C | 37% | 1023 hPa | 0 mm | - | - | - |
| 1777642927 | 18.33° C | 36% | 1023 hPa | 0 mm | - | - | - |
| 1777642686 | 18.33° C | 35% | 1023 hPa | 0 mm | - | - | - |
| 1777642566 | 18.33° C | 35% | 1023 hPa | 0 mm | - | - | - |
| 1777641487 | 18.89° C | 37% | 1023 hPa | 0 mm | - | - | - |
| 1777640887 | 18.89° C | 38% | 1023 hPa | 0 mm | - | - | - |
| 1777640286 | 18.33° C | 39% | 1023 hPa | 0 mm | - | - | - |
| 1777640047 | 18.33° C | 38% | 1023 hPa | 0 mm | - | - | - |
| 1777639213 | 17.78° C | 38% | 1023 hPa | 0 mm | - | - | - |
| 1777638727 | 17.78° C | 37% | 1023 hPa | 0 mm | - | - | - |
* Rain latest hour (hover to see other rain measurements)
** Current wind speed in m/s (hover to see current wind gust speed)